Погода Молыгино

Погода Молыгино : погода сейчас, прогноз погоды и архив. Всё, что Вы хотите узнать о погоде Молыгино!

Поиск расширенной информации на нашем сайте:

Другие новости

Новости СМИ2

Главная страница сайта

Новости сайта

03.07.2017

Напоминаем, что на нашем специализированном сайте Метеоцентр.Азия вы можете получить высокодетализированные автоматические прогнозы погоды по пунктам России, СНГ и мира в авиационном формате (включающие направление и скорость ветра, видимость, явления погоды, количество и форму облачности, нижнюю и верхнюю границу облачности).


Погода Молыгино - сегодня

Время (UTC), дата Ветер
(°,м/с) 
Видим.   Явления Облачность Т
(°С)
Тd
(°С)
f(%) Тe
(°С)
Pmin
(гПа)
dP
(гПа)
Po
(мм)
O2
(г/м3)
Тmin Tmax R s Состояние
почвы
18 18.02.18 210 (ЮЗ) н/о    н/о 
-14 -15.1 91 -16  1032.1  -0.7  757  323           
21 18.02.18 230 (ЮЗ) н/о    н/о 
-14.5 -15.7 91 -17  1031.6  -0.7  756  323           
00 19.02.18 230 (ЮЗ) н/о    н/о 
-15.4 -16.8 89 -18  1031.6  756  324  -17.7    62  равномерный
сухой снег
100% 
03 19.02.18 230 (ЮЗ) н/о    н/о 
-15.1 -16.8 87 -17  1031.7  0.1  756  324           
06 19.02.18 250 (З) н/о    н/о 
-13.7 -15.9 83 -16  1030.7  -0.8  756  322           
09 19.02.18 250 (З) н/о    н/о 
-12.5 -14.7 84 -15  1029.9  -0.7  755  320           
12 19.02.18 210 (ЮЗ) н/о    н/о 
-13.2 -14.4 91 -13  1029.5  -0.4  755  321    -12.3  0.8     
15 19.02.18 230 (ЮЗ) н/о    н/о 
-13.4 -14.5 91 -13  1028.8  -0.7  754  321           
18 19.02.18 240 (ЮЗ) н/о    н/о 
-13.9 -15 91 -16  1028.5  -0.4  754  321           
21 19.02.18 250 (З) н/о    н/о 
-14.5 -16.2 87 -17  1028.5  0.1  754  322           
00 20.02.18 230 (ЮЗ) н/о    н/о 
-14.7 -15.9 91 -15  1028.6  0.2  754  323  -15    0.6  63  равномерный
сухой снег
100% 
03 20.02.18 210 (ЮЗ) н/о    н/о 
-14.3 -15.8 88 -14  1028.9  0.3  754  322           
06 20.02.18 250 (З) н/о    н/о 
-11.7 -14.6 79 -14  1028.3  -0.4  754  319           
09 20.02.18 240 (ЮЗ) н/о    н/о 
-11.7 -14.2 82 -12  1028.5  0.2  754  319           
12 20.02.18 220 (ЮЗ) н/о    н/о 
-12.9 -13.7 94 -13  1028.4  -0.2  754  320    -11  0.8     
15 20.02.18 160 (Ю) н/о    н/о 
-13.6 -14.7 91 -16  1028.1  -0.4  754  321           
18 20.02.18 180 (Ю) н/о    н/о 
-13.1 -14.1 92 -13  1026.6  -1.4  753  320           
21 20.02.18 210 (ЮЗ) н/о    н/о 
-12.6 -13.5 93 -13  1026  -0.5  752  319           
00 21.02.18 210 (ЮЗ) н/о    н/о 
-13.3 -14.2 93 -13  1025.7  -0.4  752  320  -14.2    0.6  63  равномерный
сухой снег
100% 
03 21.02.18 220 (ЮЗ) н/о    н/о 
-12.7 -14.1 89 -13  1025.6  0.1  752  319           
09 21.02.18 250 (З) н/о    н/о 
-8.8 -12.1 77 -10  1024.9  0.1  752  314           
12 21.02.18 190 (Ю) н/о    н/о 
-14.9 -15.9 92 -15  1025.6  0.2  752  322    -7.2  0.8     
15 21.02.18 тихо ()   н/о    н/о 
-20.2 -21.7 88 -20  1025.9  -0.2  752  329           
18 21.02.18 тихо ()   н/о    н/о 
-24.6 -26.6 83 -25  1026.4  752  335           
21 21.02.18 030 (СВ) н/о    н/о 
-26.6 -28.9 81 -27  1027.3  0.7  752  338           
Время (UTC), дата Ветер
(°,м/с) 
Видим.   Явления Облачность Т
(°С)
Тd
(°С)
f(%) Тe
(°С)
Pmin
(гПа)
dP
(гПа)
Po
(мм)
O2
(г/м3)
Тmin Tmax R s Состояние
почвы

Для получения пояснительной информации подведите курсор к названию столбца.

ПОГОДА Молыгино - архив

Всё, что Вы хотите узнать о погоде Молыгино - удобно и подробно!

Выберите нужную дату (начиная с 1 января 2015* года) и нажмите кнопку "Найти".
Будут отображены архивные сводки погоды по пункту Молыгино, начиная с указанной даты.


Отображать данные в формате CSV (для использования в таблицах Excel)


Внимание! Наш архив погоды предназначен исключительно для личного некоммерческого использования в познавательных целях. Если Вам необходимы официальные справки о состоянии погоды (для производственных, юридических, коммерческих и т.п. целей), обращайтесь в органы Росгидромета.

*Примечание: данная дата относится к архиву по метеостанциям СССР (Россия, СНГ, Балтия).
Архив по метеостанциям Зарубежной Европы и Азии (кроме Китая) хранится 10 дней, по другим регионам земного шара (Китай, Африка, Америка, Австралия, Океания) - 1 день.

Молыгино - район местоположения метеостанции


Название, широта, долгота, высота метеостанции:
Молыгино 58.2°ш. 94.8°д. 161 м над ур. моря [Российская Федерация]

Дополнительная информация

В oтличие oт бoльшинства пoгoдных сайтoв мы публикуем пoдрoбную метеoинфoрмацию в детальнoм прoфессиoнальнoм фoрмате.

Характеристики температуры и влажнoсти вoздуха измеряются на высoте 2 м в тени вдали oт зданий и деревьев.
Скoрoсть ветра измеряется на высoте 10 м (на урoвне рoста челoвека скoрoсть ветра ниже в 1.5-2 раза). Если метеoстанция нахoдится в гoрoде или в лесу, тo скoрoсть ветра занижена на 2-4 м/с пo сравнению с oткрытым местoм. Скoрoсть ветра над акватoриями крупных рек и oзёр, а также на вершинах хoлмoв на 2-5 м/с выше, чем в oбычных услoвиях.
Атмoсфернoе давление в разных тoчках местнoсти мoжет значительнo oтличаться oт давления на метеoстанции, в зависимoсти oт услoвий рельефа (при пoдъёме на 10 м давление пoнижается примернo на 1 мм рт.ст.).